CZ-4B DEB, 57397

Orbit data source: Space-Track

CZ-4B DEB, 57397 is space debris in SSO originally from a launch on Wed, 24 Oct 2018 UTC launched from the Taiyaun Space Center, China (TSC). Debris objects in space refer to the collection of defunct objects orbiting the Earth. Examples of debris include non-operational satellites, rocket bodies, and fragments generated from explosions, collisions, or faulty payload assembly.

Loading next visibility...
Identifier
57397, 2018-081Q
Orbit
SSO
Country
Flag of CNCN / PRC
Related business
Manufacturer
Unknown
Mission
Spacecraft
Bus & Motor
Unknown
Mass
Unknown
Launch date (UTC)
2018-10-24 (8 years ago)
Launch vehicle
Unknown
Launch site
Taiyaun Space Center, China (TSC)
Object type
Payload
Rocket body
Debris
Shape & HBR
Unknown shape, 0.1 m
Radar Cross Section
Small (<0.1 m²)

Expand to show TLE details & history
Last TLE update: 3 days ago

TLE from 3 days ago
0 CZ-4B DEB
1 57397U 18081Q   26170.05553596  .00000648  00000-0  18168-3 0  9998
2 57397  99.3709  97.7472 0193081 232.9242 125.4156 14.39891785167263
Epoch: 2026-06-19T01:19Z
TLE epoch observation values (Epoch: 2026-06-19T01:19:58.306Z)
Latitude
-0.00004°
Longitude
170.46426°
Altitude
843.386 km
Speed
7.388 km/s
True Right ascension
06h 30m 59s
True Declination
0° 00' 00"
Sunlit
Object was in daylight at epoch
Visualization orbit readout
Latitude
Unknown
Longitude
Unknown
Altitude
Unknown
Speed
Unknown
Apparent Right ascension
Unknown
Apparent Declination
Unknown
Sunlit
N/A
Visualization observer readout
Local Sidereal Time
21:36:31
Azimuth
Unknown
Elevation
Unknown
Doppler factor
Unknown
Orbital elements
Apogee altitude
893.767 km
Perigee altitude
618.273 km
Semi-major axis
7,134.157 km
Eccentricity
0.01931
Inclination
99.3709°
RAAN
97.7472°
Arg. of periapsis
232.9242°
True anomaly
127.19359°
Mean anomaly
125.4156°
Eccentric anomaly
126.3071°
Mean motion
3.60188 °/min
Orbital period
99.95 mins
BSTAR
0.00018168
Loading maneuver chart data...
Computing Atmospheric mass density...
Loading historical data...
Loading historical data...
Loading historical data...
Loading historical data...
Loading historical data...
Loading historical data...
Loading historical data...

Documentation

Showing up to 5 results
|